This is the latest recevied weather packets stored in our database for station/object KE8WMS. If no packets are shown the sender has not sent any weather packets the latest 1 day(s).
| Time | Temp. | Humidity | Pressure | Rain* | Wind** | Luminosity | Snow |
|---|---|---|---|---|---|---|---|
| 1778056406 | 7.22° C | 99% | 1005.1 hPa | 1.27 mm | - | 0 W/m² | - |
| 1778056104 | 7.22° C | 99% | 1004.9 hPa | 1.27 mm | - | 0 W/m² | - |
| 1778055800 | 7.22° C | 99% | 1005 hPa | 1.78 mm | - | 0 W/m² | - |
| 1778054892 | 7.78° C | 99% | 1005.2 hPa | 3.05 mm | - | 0 W/m² | - |
| 1778054588 | 7.78° C | 99% | 1005.4 hPa | 1.78 mm | - | 0 W/m² | - |
| 1778054286 | 7.78° C | 99% | 1005.4 hPa | 1.27 mm | - | 0 W/m² | - |
| 1778053680 | 7.78° C | 99% | 1005.2 hPa | 1.78 mm | - | 0 W/m² | - |
| 1778053377 | 7.78° C | 99% | 1005.2 hPa | 1.78 mm | - | 0 W/m² | - |
| 1778052469 | 7.78° C | 99% | 1005.1 hPa | 1.78 mm | - | 0 W/m² | - |
| 1778052166 | 7.78° C | 99% | 1004.9 hPa | 3.05 mm | - | 0 W/m² | - |
| 1778051864 | 7.78° C | 99% | 1005 hPa | 3.05 mm | - | 0 W/m² | - |
| 1778050955 | 7.78° C | 99% | 1005 hPa | 1.27 mm | - | 0 W/m² | - |
| 1778050653 | 7.78° C | 99% | 1004.9 hPa | 1.27 mm | - | 0 W/m² | - |
| 1778050350 | 7.78° C | 99% | 1004.7 hPa | 0 mm | - | 0 W/m² | - |
| 1778048836 | 7.78° C | 99% | 1004.8 hPa | 0 mm | - | 0 W/m² | - |
| 1778047926 | 7.78° C | 99% | 1005.1 hPa | 0 mm | - | 0 W/m² | - |
| 1778047018 | 7.78° C | 99% | 1005 hPa | 1.27 mm | - | 0 W/m² | - |
| 1778046715 | 7.78° C | 99% | 1005.3 hPa | 0 mm | - | 0 W/m² | - |
| 1778046412 | 7.78° C | 99% | 1005.1 hPa | 0 mm | - | 0 W/m² | - |
| 1778045806 | 7.78° C | 99% | 1005.1 hPa | 1.78 mm | - | 0 W/m² | - |
| 1778045504 | 7.78° C | 99% | 1005.2 hPa | 1.78 mm | - | 0 W/m² | - |
| 1778044900 | 7.78° C | 99% | 1005 hPa | 0 mm | - | 0 W/m² | - |
| 1778044293 | 7.78° C | 99% | 1005.1 hPa | 1.78 mm | - | 0 W/m² | - |
| 1778043385 | 7.78° C | 99% | 1004.9 hPa | 1.27 mm | - | 0 W/m² | - |
| 1778042779 | 7.78° C | 99% | 1005.4 hPa | 0 mm | - | 0 W/m² | - |
* Rain latest hour (hover to see other rain measurements)
** Current wind speed in m/s (hover to see current wind gust speed)